sat.trackr.live / text

‹ back to catalog

STARLINK-35490

NORAD 66204 · 2025-243AD

PAYLOAD ACTIVE UNKNOWN

§ Identity

Operator
Country
US
Launch date
2025-10-26
Launch site
AFETR
Launch vehicle
Mass (kg)
RCS (m²)

Purposes: comms

External: N2YO · Heavens-Above · Gunter

§ Orbital elements

Epoch: 2026-09-20T14:38:27.982176Z

Period
93.85 min
Inclination
53.1585°
Eccentricity
0.0000983
Mean motion
15.34410632 rev/d
Perigee alt
462.0 km
Apogee alt
463.3 km
Semi-major
6,840.8 km
B*
7.1876e-4
RAAN
57.2638°
Arg perigee
84.5358°
Mean anomaly
275.5757°
Rev number
5,053

§ Raw data

STARLINK-354901 66204U 25243AD  26263.61004609  .00023994  00000+0  71876-3 0  99972 66204  53.1585  57.2638 0000983  84.5358 275.5757 15.34410632 50531

JSON: /api/v1/satellites/66204 · /tle

For live sub-satellite position, see the globe view (requires WebGL).

§ Visibility from observer

Set your observer location to see the next 7 days of passes ≥ 10°. The values pass through the URL so the page stays shareable.

No JS? Fill the form by hand. The geolocation button needs JavaScript.